{"data":{"norad_id":54838,"epoch":"2026-05-25T01:53:10.849056Z","epoch_age_seconds":71330,"freshness":"FRESH","line1":"1 54838U 22177U   26145.07859779  .00001344  00000+0  58340-4 0  9992","line2":"2 54838  43.0053  61.4532 0001207 267.4677  92.6036 15.27593180188649","mean_motion":15.2759318,"eccentricity":0.0001207,"inclination_deg":43.0053,"raan_deg":61.4532,"arg_perigee_deg":267.4677,"mean_anomaly_deg":92.6036,"bstar":5.834e-5,"rev_number":18864,"period_min":94.265935384708,"perigee_km":482.18149026361,"apogee_km":483.83777106025,"semimajor_km":6861.1466306619,"source":"CELESTRAK","updated_at":"2026-05-25T13:38:17.723127Z"}}